GW5469 Weather Reports


time (UTC)temp
C
wind
direction
speed
KPH
gust
KPH
rain 1hr
cm
rain 24hr
cm
rain mn
cm
humidity
%
barometer
mb
20260505124834 2 128 9.7 11.3 0.00 0.00 0.00 84 1018.0
20260505124331 2 123 9.7 11.3 0.00 0.00 0.00 85 1018.0
20260505123827 2 116 9.7 11.3 0.00 0.00 0.00 84 1018.0
20260505123324 2 79 11.3 12.9 0.00 0.00 0.00 83 1018.2
20260505122820 2 102 6.4 6.4 0.00 0.00 0.00 80 1018.1
20260505122318 3 80 4.8 4.8 0.00 0.00 0.00 78 1017.9
20260505121814 3 65 6.4 6.4 0.00 0.00 0.00 76 1017.8
20260505121312 3 61 3.2 4.8 0.00 0.00 0.00 74 1017.8
20260505120808 3 55 6.4 11.3 0.00 0.00 0.00 73 1018.0
20260505120304 3 50 3.2 3.2 0.00 0.00 0.00 74 1017.7
20260505115802 3 74 9.7 11.3 0.00 0.00 0.00 72 1017.8
20260505115300 3 46 8.0 11.3 0.00 0.00 0.00 71 1017.7
20260505114757 3 73 1.6 1.6 0.00 0.00 0.00 69 1017.7
20260505114253 3 67 12.9 12.9 0.00 0.00 0.00 67 1017.4
20260505113750 3 29 6.4 6.4 0.00 0.00 0.00 67 1017.6
20260505113247 3 349 4.8 6.4 0.00 0.00 0.00 66 1017.7
20260505112742 3 328 4.8 4.8 0.00 0.00 0.00 67 1017.6
20260505112241 3 318 4.8 6.4 0.00 0.00 0.00 68 1017.6
20260505111740 3 313 6.4 9.7 0.00 0.00 0.00 68 1017.5
20260505111237 4 2 4.8 4.8 0.00 0.00 0.00 66 1017.6
20260505110732 4 24 4.8 6.4 0.00 0.00 0.00 66 1017.5
20260505110231 4 333 11.3 14.5 0.00 0.00 0.00 65 1017.4
20260505102206 3 289 3.2 4.8 0.00 0.00 0.00 57 1017.4
20260505101705 3 284 6.4 6.4 0.00 0.00 0.00 55 1017.4
20260505101201 4 278 1.6 1.6 0.00 0.00 0.00 55 1017.2
20260505100656 3 278 4.8 4.8 0.00 0.00 0.00 54 1017.0
20260505100154 3 287 4.8 4.8 0.00 0.00 0.00 54 1017.2
20260505095649 3 295 6.4 6.4 0.00 0.00 0.00 53 1017.2
20260505095147 3 264 1.6 3.2 0.00 0.00 0.00 54 1017.0
20260505094643 3 261 1.6 1.6 0.00 0.00 0.00 54 1016.9
20260505094139 3 269 1.6 1.6 0.00 0.00 0.00 54 1016.7
20260505093636 3 258 3.2 3.2 0.00 0.00 0.00 54 1016.8
20260505093133 2 233 1.6 1.6 0.00 0.00 0.00 58 1016.8
20260505092630 2 234 3.2 3.2 0.00 0.00 0.00 59 1016.8
20260505092129 2 234 3.2 4.8 0.00 0.00 0.00 55 1016.8
20260505091625 3 237 3.2 3.2 0.00 0.00 0.00 55 1016.9
20260505091123 2 235 4.8 4.8 0.00 0.00 0.00 55 1016.7
20260505090621 2 220 6.4 6.4 0.00 0.00 0.00 57 1017.1
20260505090119 2 222 3.2 3.2 0.00 0.00 0.00 58 1016.7
20260505085616 2 223 6.4 9.7 0.00 0.00 0.00 58 1016.8
20260505085114 2 232 3.2 4.8 0.00 0.00 0.00 59 1016.7
20260505084612 2 232 4.8 6.4 0.00 0.00 0.00 59 1016.8
20260505084110 2 241 1.6 3.2 0.00 0.00 0.00 58 1016.8
20260505083607 2 242 4.8 6.4 0.00 0.00 0.00 57 1016.9
20260505083103 2 233 4.8 4.8 0.00 0.00 0.00 58 1016.8
20260505082559 2 233 3.2 3.2 0.00 0.00 0.00 59 1016.6
20260505082056 2 239 6.4 6.4 0.00 0.00 0.00 61 1016.8
20260505081553 2 261 4.8 4.8 0.00 0.00 0.00 61 1016.8
20260505081050 2 263 3.2 4.8 0.00 0.00 0.00 63 1016.9
20260505080546 2 269 1.6 3.2 0.00 0.00 0.00 58 1017.0
20260505080043 2 269 1.6 1.6 0.00 0.00 0.00 59 1017.0
20260505075538 2 270 3.2 3.2 0.00 0.00 0.00 62 1017.1
20260505075036 2 274 4.8 4.8 0.00 0.00 0.00 58 1017.2
20260505074533 2 272 3.2 3.2 0.00 0.00 0.00 61 1017.0
20260505074030 2 281 1.6 1.6 0.00 0.00 0.00 58 1016.9
20260505073527 2 281 0.0 0.0 0.00 0.00 0.00 59 1017.1
20260505073026 3 281 1.6 1.6 0.00 0.00 0.00 56 1016.8
20260505072521 2 281 0.0 1.6 0.00 0.00 0.00 57 1017.0
20260505072017 2 281 1.6 1.6 0.00 0.00 0.00 57 1016.9
20260505071513 2 281 1.6 1.6 0.00 0.00 0.00 59 1017.0
20260505071011 2 282 0.0 0.0 0.00 0.00 0.00 59 1017.2
20260505070508 3 282 1.6 1.6 0.00 0.00 0.00 60 1016.7
20260505070004 3 282 0.0 0.0 0.00 0.00 0.00 56 1017.0
20260505065500 2 283 3.2 3.2 0.00 0.00 0.00 54 1017.0
20260505064957 3 287 3.2 3.2 0.00 0.00 0.00 58 1016.9
20260505064453 3 318 3.2 3.2 0.00 0.00 0.00 56 1016.8
20260505063952 3 339 1.6 1.6 0.00 0.00 0.00 54 1016.7
20260505063448 2 345 0.0 1.6 0.00 0.00 0.00 55 1016.5
20260505062945 3 345 0.0 0.0 0.00 0.00 0.00 61 1016.6
20260505062442 3 345 0.0 0.0 0.00 0.00 0.00 54 1016.4
20260505061939 2 345 0.0 0.0 0.00 0.00 0.00 54 1016.3
20260505061437 3 346 0.0 0.0 0.00 0.00 0.00 54 1016.1
20260505060934 3 346 0.0 1.6 0.00 0.00 0.00 53 1016.4
20260505060431 3 348 0.0 0.0 0.00 0.00 0.00 51 1016.1
20260505055927 3 349 3.2 3.2 0.00 0.00 0.00 50 1016.3
20260505055423 3 350 0.0 0.0 0.00 0.00 0.00 51 1016.3
20260505054920 4 2 0.0 0.0 0.00 0.00 0.00 54 1016.3
20260505054418 4 12 1.6 1.6 0.00 0.00 0.00 50 1016.4
20260505053916 4 34 3.2 4.8 0.00 0.00 0.00 49 1016.3
20260505053412 5 44 3.2 3.2 0.00 0.00 0.00 50 1016.3
20260505052909 5 27 3.2 3.2 0.00 0.00 0.00 48 1016.0
20260505052406 5 31 4.8 4.8 0.00 0.00 0.00 48 1016.1
20260505051903 5 36 6.4 6.4 0.00 0.00 0.00 48 1016.1
20260505051401 5 30 4.8 6.4 0.00 0.00 0.00 47 1016.4
20260505050858 5 15 4.8 4.8 0.00 0.00 0.00 47 1016.3
20260505050357 5 0 6.4 6.4 0.00 0.00 0.00 46 1016.4
20260505041324 4 17 4.8 4.8 0.00 0.00 0.00 46 1015.9
20260505040821 3 1 4.8 4.8 0.00 0.00 0.00 47 1016.0
20260505040319 4 4 3.2 3.2 0.00 0.00 0.00 47 1015.9
20260505035815 4 15 3.2 3.2 0.00 0.00 0.00 46 1015.7
20260505035311 5 33 4.8 4.8 0.00 0.00 0.00 44 1015.7
20260505034809 5 24 3.2 4.8 0.00 0.00 0.00 44 1015.5
20260505034305 5 33 6.4 6.4 0.00 0.00 0.00 43 1015.7
20260505033802 5 27 6.4 6.4 0.00 0.00 0.00 42 1015.6
20260505033259 5 49 8.0 9.7 0.00 0.00 0.00 41 1015.5
20260505032757 6 42 6.4 9.7 0.00 0.00 0.00 40 1015.4
20260505032253 6 36 6.4 6.4 0.00 0.00 0.00 39 1015.3
20260505031750 7 33 6.4 6.4 0.00 0.00 0.00 37 1014.9
20260505031246 7 43 12.9 14.5 0.00 0.00 0.00 36 1015.1
20260505030744 7 16 8.0 9.7 0.00 0.00 0.00 34 1014.7
20260505030240 6 18 6.4 6.4 0.00 0.00 0.00 32 1014.7
20260505025735 7 2 4.8 4.8 0.00 0.00 0.00 31 1014.7
20260505025234 7 11 6.4 6.4 0.00 0.00 0.00 30 1014.7
20260505024732 7 8 4.8 4.8 0.00 0.00 0.00 30 1014.6
20260505024229 8 6 6.4 6.4 0.00 0.00 0.00 29 1014.3
20260505023726 8 20 9.7 11.3 0.00 0.00 0.00 28 1014.2
20260505023223 8 358 4.8 4.8 0.00 0.00 0.00 27 1014.4
20260505022721 10 16 4.8 4.8 0.00 0.00 0.00 26 1014.2
20260505022217 10 353 8.0 9.7 0.00 0.00 0.00 26 1014.3
20260505021714 10 350 6.4 9.7 0.00 0.00 0.00 25 1014.0
20260505021211 10 335 8.0 9.7 0.00 0.00 0.00 25 1014.1
20260505020707 10 329 6.4 9.7 0.00 0.00 0.00 25 1013.8
20260505020202 11 331 8.0 9.7 0.00 0.00 0.00 25 1014.0
20260505015700 11 338 9.7 12.9 0.00 0.00 0.00 24 1014.1
20260505015156 11 356 9.7 11.3 0.00 0.00 0.00 24 1013.8
20260505014654 12 352 19.3 22.5 0.00 0.00 0.00 23 1013.8
20260505014151 12 325 11.3 12.9 0.00 0.00 0.00 23 1013.8
20260505013648 12 325 19.3 25.7 0.00 0.00 0.00 23 1013.8
20260505013145 12 349 16.1 17.7 0.00 0.00 0.00 23 1013.7
20260505012643 12 316 16.1 16.1 0.00 0.00 0.00 24 1013.7
20260505012140 12 310 4.8 6.4 0.00 0.00 0.00 24 1013.8
20260505011636 12 308 9.7 12.9 0.00 0.00 0.00 24 1013.6
20260505011133 12 316 14.5 17.7 0.00 0.00 0.00 23 1013.5
20260505010633 12 339 16.1 20.9 0.00 0.00 0.00 24 1013.8
20260505010130 12 332 14.5 16.1 0.00 0.00 0.00 23 1013.8
20260505005626 12 350 17.7 20.9 0.00 0.00 0.00 23 1014.1
20260505005124 12 6 16.1 20.9 0.00 0.00 0.00 23 1013.7
20260505004621 12 1 16.1 20.9 0.00 0.00 0.00 23 1014.0
20260505004117 12 323 22.5 27.4 0.00 0.00 0.00 23 1014.2
20260505003615 12 337 12.9 14.5 0.00 0.00 0.00 24 1013.8
20260505003112 12 6 16.1 17.7 0.00 0.00 0.00 24 1013.8
20260505002608 13 349 8.0 12.9 0.00 0.00 0.00 25 1014.0
20260505002107 13 2 12.9 14.5 0.00 0.00 0.00 26 1014.1
20260505001603 13 335 11.3 14.5 0.00 0.00 0.00 26 1013.8
20260505001101 12 339 8.0 14.5 0.00 0.00 0.00 26 1014.1
20260505000558 12 346 17.7 22.5 0.00 0.00 0.00 26 1014.1
20260505000055 12 355 20.9 25.7 0.00 0.00 0.00 27 1014.2
20260504235552 13 351 17.7 22.5 0.00 0.00 0.00 26 1014.1
20260504235049 13 359 25.7 27.4 0.00 0.00 0.00 26 1014.0
20260504234546 13 6 12.9 17.7 0.00 0.00 0.00 28 1014.2
20260504234043 12 342 19.3 24.1 0.00 0.00 0.00 28 1014.2
20260504233538 13 326 17.7 20.9 0.00 0.00 0.00 29 1014.1
20260504233035 13 323 19.3 24.1 0.00 0.00 0.00 29 1014.1
20260504232532 13 290 12.9 14.5 0.00 0.00 0.00 30 1014.1
20260504232030 12 306 11.3 12.9 0.00 0.00 0.00 30 1014.2
20260504231526 12 342 14.5 17.7 0.00 0.00 0.00 30 1014.3
20260504231022 12 321 14.5 17.7 0.00 0.00 0.00 31 1014.1
20260504230519 12 311 17.7 25.7 0.00 0.00 0.00 31 1014.1
20260504230018 12 347 14.5 16.1 0.00 0.00 0.00 32 1014.2
20260504225514 12 325 14.5 16.1 0.00 0.00 0.00 32 1014.4
20260504225011 12 330 19.3 22.5 0.00 0.00 0.00 32 1014.2
20260504224508 13 328 16.1 17.7 0.00 0.00 0.00 31 1014.3
20260504224005 12 16 11.3 12.9 0.00 0.00 0.00 32 1014.1
20260504223501 12 323 16.1 16.1 0.00 0.00 0.00 31 1014.1
20260504222957 12 336 14.5 16.1 0.00 0.00 0.00 32 1014.3
20260504222455 12 319 11.3 12.9 0.00 0.00 0.00 32 1014.0
20260504221952 12 321 14.5 16.1 0.00 0.00 0.00 32 1014.3
20260504221449 12 327 19.3 22.5 0.00 0.00 0.00 31 1014.1
20260504220946 13 324 11.3 12.9 0.00 0.00 0.00 30 1013.8
20260504220442 13 339 24.1 27.4 0.00 0.00 0.00 29 1014.0
20260504215939 13 326 11.3 14.5 0.00 0.00 0.00 29 1013.8
20260504215436 13 351 17.7 24.1 0.00 0.00 0.00 29 1013.8
20260504214933 13 341 20.9 25.7 0.00 0.00 0.00 28 1014.1
20260504214429 12 341 19.3 20.9 0.00 0.00 0.00 29 1014.0
20260504213926 13 354 20.9 25.7 0.00 0.00 0.00 28 1014.2
20260504213422 13 342 19.3 22.5 0.00 0.00 0.00 28 1014.1
20260504212920 13 312 17.7 22.5 0.00 0.00 0.00 28 1014.1
20260504212415 12 329 20.9 25.7 0.00 0.00 0.00 28 1013.8
20260504211913 12 308 9.7 11.3 0.00 0.00 0.00 30 1014.2
20260504211409 13 327 24.1 30.6 0.00 0.00 0.00 29 1014.0
20260504210906 12 353 17.7 22.5 0.00 0.00 0.00 29 1014.1
20260504210403 13 330 20.9 27.4 0.00 0.00 0.00 30 1014.2
20260504205900 13 324 20.9 22.5 0.00 0.00 0.00 30 1014.1
20260504205358 13 352 20.9 24.1 0.00 0.00 0.00 29 1014.0
20260504204856 13 347 27.4 33.8 0.00 0.00 0.00 29 1014.0
20260504204354 13 308 32.2 40.2 0.00 0.00 0.00 27 1014.1
20260504203854 13 312 11.3 14.5 0.00 0.00 0.00 29 1014.0
20260504203350 13 339 22.5 33.8 0.00 0.00 0.00 29 1014.0
20260504202846 13 300 22.5 27.4 0.00 0.00 0.00 30 1013.8
20260504202343 13 338 11.3 14.5 0.00 0.00 0.00 30 1014.1
20260504201839 13 336 20.9 24.1 0.00 0.00 0.00 29 1014.0
20260504201337 13 340 14.5 17.7 0.00 0.00 0.00 30 1014.1
20260504200834 13 344 17.7 22.5 0.00 0.00 0.00 30 1014.0
20260504200331 13 324 17.7 24.1 0.00 0.00 0.00 29 1013.8
20260504195827 13 311 11.3 14.5 0.00 0.00 0.00 29 1013.8
20260504195323 13 347 16.1 22.5 0.00 0.00 0.00 29 1014.0
20260504194820 13 330 17.7 27.4 0.00 0.00 0.00 27 1013.8
20260504194316 13 329 9.7 11.3 0.00 0.00 0.00 31 1013.8
20260504193812 13 337 20.9 24.1 0.00 0.00 0.00 31 1014.0
20260504193310 13 324 14.5 20.9 0.00 0.00 0.00 31 1014.0
20260504192808 13 334 16.1 17.7 0.00 0.00 0.00 31 1014.1
20260504192306 14 338 25.7 27.4 0.00 0.00 0.00 29 1014.1
20260504191804 14 324 11.3 12.9 0.00 0.00 0.00 30 1014.2
20260504191301 13 339 22.5 29.0 0.00 0.00 0.00 30 1014.0
20260504190757 13 344 17.7 22.5 0.00 0.00 0.00 30 1014.2
20260504190253 13 336 17.7 20.9 0.00 0.00 0.00 30 1014.3
20260504185749 13 351 19.3 22.5 0.00 0.00 0.00 31 1014.1
20260504185247 13 297 12.9 16.1 0.00 0.00 0.00 32 1014.3
20260504184743 13 315 17.7 24.1 0.00 0.00 0.00 32 1014.4
20260504184238 12 343 8.0 12.9 0.00 0.00 0.00 33 1014.4
20260504183734 12 326 12.9 16.1 0.00 0.00 0.00 33 1014.1
20260504183232 12 319 22.5 29.0 0.00 0.00 0.00 33 1014.4
20260504182730 13 336 22.5 27.4 0.00 0.00 0.00 33 1014.2
20260504182226 13 350 17.7 17.7 0.00 0.00 0.00 33 1014.4
20260504181724 12 6 9.7 14.5 0.00 0.00 0.00 35 1014.4
20260504181221 13 307 20.9 27.4 0.00 0.00 0.00 35 1014.4
20260504180720 13 309 19.3 24.1 0.00 0.00 0.00 35 1014.0
20260504180219 13 343 12.9 14.5 0.00 0.00 0.00 36 1014.1
20260504175716 13 321 16.1 20.9 0.00 0.00 0.00 35 1014.2
20260504175212 12 305 24.1 27.4 0.00 0.00 0.00 35 1014.1
20260504174711 12 319 14.5 16.1 0.00 0.00 0.00 37 1014.3
20260504174208 12 319 14.5 17.7 0.00 0.00 0.00 36 1014.2
20260504173704 13 310 14.5 17.7 0.00 0.00 0.00 34 1014.3
20260504173202 12 301 14.5 17.7 0.00 0.00 0.00 41 1014.3
20260504172658 12 282 17.7 22.5 0.00 0.00 0.00 42 1014.3
20260504172154 12 313 16.1 20.9 0.00 0.00 0.00 41 1014.4
20260504171651 13 291 11.3 12.9 0.00 0.00 0.00 40 1014.4
20260504171148 13 291 16.1 17.7 0.00 0.00 0.00 40 1014.2
20260504170644 12 321 19.3 24.1 0.00 0.00 0.00 40 1014.5
20260504170142 12 316 11.3 12.9 0.00 0.00 0.00 40 1014.3
20260504151028 10 283 9.7 14.5 0.00 0.00 0.00 51 1014.7
20260504150525 10 282 14.5 16.1 0.00 0.00 0.00 50 1014.6
20260504140956 8 267 4.8 4.8 0.00 0.00 0.00 59 1015.1
20260504140453 8 254 6.4 6.4 0.00 0.00 0.00 59 1014.9
20260504130417 7 277 3.2 3.2 0.00 0.00 0.00 62 1014.8